Temperature
16 16 16 16 16 16 16 16 15 15 15 16 16 16 16 16 16 16 16 16 16 16 16 16 16 16 16 16 15 15 15 15 15 15 15 15 14 14
16 16 16 16 15 15 15 15 15 15 15 15 16 16 16 16 16 16 16 16 16 16 16 15 16 16 16 16 15 15 15 15 15 15 15 15 15 14
15 15 15 15 15 15 15 15 15 15 15 15 15 16 16 16 16 16 16 15 16 16 15 15 15 15 15 15 15 15 15 15 15 15 15 15 14 14
15 15 15 15 15 15 15 15 15 15 15 15 15 15 15 15 15 15 15 15 15 15 15 15 15 15 15 15 15 15 15 15 15 15 15 15 14 14
15 15 15 15 15 14 14 14 14 14 14 14 15 15 15 15 15 15 15 15 15 15 15 15 15 15 15 15 15 15 15 15 15 15 14 14 14 14
14 14 14 14 14 14 14 14 14 14 14 14 14 14 15 15 15 15 15 15 15 15 15 15 15 15 15 15 15 15 15 15 15 14 14 14 14 14
14 14 14 14 14 14 14 14 14 14 14 14 14 14 14 14 14 14 15 15 15 15 15 15 15 15 15 15 15 14 14 14 14 14 14 14 14 14
14 14 14 14 14 14 14 14 14 14 14 14 14 14 14 14 14 14 14 14 14 15 14 14 14 14 15 15 15 14 14 14 14 14 14 14 14 14
14 14 14 14 14 14 14 14 14 14 13 13 13 14 14 14 14 14 14 14 14 14 14 14 14 14 14 15 14 14 14 14 14 14 14 14 14 14
14 13 13 13 13 13 13 13 14 13 13 13 13 13 13 13 13 13 13 13 14 14 13 14 14 14 14 14 14 14 14 14 14 14 14 14 14 14
13 13 13 13 13 13 13 13 13 13 13 13 13 13 13 13 13 13 13 13 13 13 13 13 14 14 14 14 14 14 14 14 14 14 13 13 13 13
13 13 13 13 13 13 13 13 13 13 13 13 13 13 13 13 13 13 13 13 13 13 13 13 13 13 13 14 14 14 13 13 13 13 13 13 13 13
13 13 13 13 13 13 13 13 13 13 13 13 13 13 13 13 13 13 13 13 13 13 13 13 13 13 12 13 13 13 13 13 13 13 13 13 13 13
12 12 12 12 12 12 12 13 13 13 12 12 12 12 12 12 12 12 12 12 12 12 12 12 12 12 12 12 12 13 13 13 13 13 13 13 12 12
12 12 12 12 12 12 12 12 12 12 12 12 12 12 12 12 12 12 12 12 12 12 12 12 12 12 12 12 12 12 12 12 12 12 12 12 12 12
12 12 12 12 12 12 12 12 11 11 11 11 11 11 11 11 11 11 11 12 12 12 12 12 12 12 12 12 12 12 12 12 12 12 12 12 12 12
11 11 11 11 11 11 11 11 11 11 11 11 11 11 11 11 11 11 11 11 11 11 12 12 12 12 12 12 12 12 12 12 12 12 11 11 11 11
11 11 11 11 10 10 10 10 10 10 10 10 10 10 10 10 10 11 10 10 10 11 11 11 11 11 11 11 11 11 11 11 11 11 11 11 11 11
11 10 10 10 10 10 10 10 10 10 10 10 9 9 9 10 10 10 10 10 10 10 10 10 11 10 10 10 10 11 11 11 11 10 10 10 10 10
10 10 10 10 10 10 10 10 10 10 9 9 9 9 9 9 9 9 9 9 9 9 9 10 10 10 10 10 10 10 10 10 10 10 10 10 10 10
10 10 10 10 9 9 9 9 9 9 9 9 9 9 9 9 9 9 9 9 9 9 9 9 9 9 9 9 9 9 10 10 10 10 10 9 9 9
10 10 9 9 9 9 9 9 9 9 9 9 8 8 8 8 8 8 8 8 8 8 8 8 9 9 9 9 9 9 9 9 9 9 9 9 9 9
9 9 9 9 9 9 9 8 8 8 8 8 8 8 8 8 8 8 8 8 7 7 8 8 8 8 9 9 8 8 8 8 8 8 8 8 8 9
Wind_Speed
1 1 1 1 1 1 1 1 2 2 3 3 2 3 4 4 5 5 5 7 8 8 9 9 10 11 11 11 11 11 10 10 11 12 11 11 11 11
1 1 1 2 1 1 1 1 2 2 3 3 3 3 3 3 4 5 5 6 7 8 9 9 10 11 11 11 11 11 11 11 11 11 11 11 11 11
1 1 2 2 1 1 1 1 1 2 3 3 2 2 2 3 2 3 4 5 6 8 9 10 10 10 11 11 12 12 12 12 12 11 11 11 11 11
2 2 3 2 2 2 2 2 2 2 3 4 3 2 3 3 2 3 3 4 5 7 9 10 10 10 11 11 12 12 12 12 12 12 12 11 12 12
3 3 3 2 3 3 2 3 3 2 2 3 3 2 2 2 2 3 4 4 5 6 9 10 11 11 11 11 12 12 12 12 12 12 12 12 12 12
3 3 4 3 4 4 3 3 3 3 2 2 3 3 2 2 2 3 4 4 5 5 6 7 9 11 11 12 12 13 13 13 13 13 13 13 13 13
4 4 4 4 5 4 3 3 3 3 3 3 3 3 3 2 3 3 5 4 5 4 4 5 5 6 7 10 11 12 13 13 13 13 13 13 13 13
5 5 5 5 5 6 6 5 4 4 4 4 4 4 5 4 4 4 4 4 4 3 4 5 4 6 6 7 10 11 12 13 13 13 13 14 14 14
5 5 5 4 4 5 6 6 6 7 7 5 5 6 6 5 4 5 5 5 6 3 2 5 4 6 6 7 10 12 13 13 13 13 13 13 13 14
5 5 5 5 5 4 4 4 5 6 7 6 6 7 7 6 6 6 6 5 5 3 3 4 4 5 5 5 9 12 13 13 13 13 13 13 13 13
5 4 5 5 7 5 3 5 6 6 6 7 9 8 8 7 5 3 4 4 5 4 4 4 4 4 4 5 6 9 11 12 13 13 13 13 13 12
4 5 5 6 7 5 3 4 6 6 5 5 5 5 6 6 6 6 5 5 4 4 4 4 3 2 3 3 4 4 6 8 10 12 12 12 12 8
4 4 5 6 6 6 4 4 6 5 4 4 4 4 4 4 4 4 5 5 6 5 4 4 3 3 3 3 2 3 4 3 5 6 8 10 11 10
4 4 4 5 5 5 3 5 5 3 2 3 3 4 4 4 5 5 5 6 7 7 6 5 4 4 4 4 3 2 3 3 3 3 3 5 8 10
4 5 5 5 5 4 5 5 3 2 2 3 4 5 5 5 5 4 4 5 6 6 6 7 6 5 5 4 3 3 2 2 3 3 3 3 4 4
4 5 5 4 3 4 4 3 2 2 2 3 5 5 4 4 3 3 4 4 3 4 3 4 6 6 5 5 4 4 3 3 3 3 3 3 3 4
3 2 2 2 3 3 3 3 3 3 3 3 4 4 4 4 4 3 3 3 3 3 4 2 2 3 4 3 3 4 3 3 3 3 3 3 3 4
1 2 3 3 3 3 4 4 3 3 3 3 3 4 4 4 4 3 2 3 3 4 3 3 2 1 1 1 3 4 3 3 2 3 3 3 3 2
1 2 3 3 3 4 3 3 4 4 3 3 3 3 3 3 3 3 3 3 4 4 4 3 2 2 3 3 2 3 3 2 2 2 3 3 3 3
2 3 3 3 3 4 3 3 3 3 3 3 3 3 3 3 3 3 3 3 4 4 4 3 3 3 4 4 2 2 3 3 3 3 2 1 1 1
3 3 3 3 3 3 3 3 3 3 3 3 3 3 3 3 3 3 3 4 3 4 4 4 5 5 3 1 1 1 1 2 2 3 2 2 1 1
4 4 3 3 3 3 3 3 3 3 3 3 3 3 3 3 3 4 3 3 3 3 4 4 4 2 1 2 2 1 0 1 1 2 2 2 2 3
4 3 3 3 3 3 3 3 3 3 3 3 3 3 3 3 3 3 3 3 3 3 4 4 3 2 1 1 2 1 1 1 1 1 2 2 2 2
Wind_Direction
318 314 299 293 292 268 247 233 220 263 275 270 266 263 250 237 237 228 227 227 220 218 220 222 224 222 221 221 222 223 222 224 226 223 223 222 224 228
309 334 321 301 298 279 256 253 241 233 260 264 250 263 252 246 238 228 230 225 222 221 225 225 224 223 221 221 221 220 219 220 223 223 221 220 221 222
326 332 307 299 298 291 274 257 247 232 254 277 264 274 244 255 258 238 230 228 233 229 228 227 226 227 224 222 222 220 220 218 221 223 221 217 218 217
288 293 295 297 291 285 269 262 256 241 239 270 279 269 255 258 252 243 244 238 240 237 232 230 229 230 229 226 224 223 224 222 220 221 219 217 217 217
270 265 274 276 282 278 268 267 264 260 249 262 279 266 259 273 261 261 256 252 250 243 234 233 233 233 231 230 226 225 224 223 222 221 218 216 216 216
283 273 265 257 258 259 260 262 260 258 259 266 277 277 265 276 255 258 264 252 253 253 243 239 235 234 234 233 230 226 224 223 224 222 218 217 218 218
289 283 276 274 264 255 262 257 246 250 258 264 271 280 273 265 253 246 255 264 253 238 245 245 240 240 236 232 230 226 222 221 223 223 221 219 218 217
281 285 283 277 278 268 264 254 233 236 245 251 260 267 267 260 254 246 249 260 262 226 230 254 236 240 241 233 226 221 220 221 221 221 220 218 217 216
275 280 286 291 284 282 274 264 252 244 232 233 250 259 262 253 250 254 245 247 253 238 226 254 239 241 242 235 222 218 217 218 219 219 218 216 216 216
278 275 278 290 292 285 280 276 269 264 249 240 247 256 261 258 244 248 254 260 266 254 217 248 252 249 254 243 220 214 215 217 218 219 218 216 216 215
290 292 288 291 295 292 276 277 282 282 270 254 249 257 264 264 255 255 253 253 265 259 215 229 250 261 257 246 229 216 217 217 219 220 219 216 216 216
303 304 296 295 297 289 268 271 279 285 293 294 279 277 275 267 247 234 235 241 253 254 223 213 233 243 263 244 228 223 218 219 220 223 220 217 212 211
300 305 305 300 295 289 270 267 271 280 290 290 293 297 297 286 269 254 235 231 239 248 230 210 230 234 243 264 257 232 221 225 226 225 222 215 208 203
280 288 297 306 303 304 302 301 296 295 299 303 301 299 298 296 290 282 261 248 247 253 247 231 236 234 244 259 265 254 229 225 221 227 223 208 207 207
281 290 301 311 311 315 318 324 328 322 313 302 295 292 289 289 293 293 289 275 268 264 254 241 238 234 230 237 237 247 253 234 211 217 220 215 215 207
290 299 302 315 322 318 329 332 329 316 303 295 295 297 302 306 305 303 298 297 291 293 280 257 240 228 229 228 220 233 231 214 206 210 213 223 218 211
301 316 326 334 336 329 325 325 328 331 314 307 310 314 317 317 315 321 310 299 288 297 304 301 269 234 225 221 223 227 226 232 224 210 202 217 222 216
302 291 288 295 294 298 302 309 313 310 302 300 303 304 304 306 309 315 315 304 294 294 295 299 297 278 232 248 226 226 226 225 222 201 196 207 220 214
249 274 277 280 283 287 288 287 285 287 287 292 298 299 299 303 304 311 313 313 311 304 301 303 287 251 246 259 252 203 213 223 207 204 204 210 219 223
278 276 279 281 286 287 286 287 289 297 294 291 295 297 298 301 303 306 305 309 308 309 309 311 294 259 246 250 253 254 211 207 202 205 212 226 212 187
279 281 281 282 284 287 293 295 296 299 302 300 303 304 302 298 296 299 303 312 310 310 308 300 293 276 257 215 218 271 259 196 196 200 197 188 197 205
283 280 277 276 280 288 293 295 298 302 305 306 310 307 303 298 296 300 302 305 305 306 304 304 310 304 205 190 209 230 239 51 41 77 144 183 198 207
290 291 292 291 291 293 293 297 298 299 302 304 306 302 299 296 296 297 298 297 303 310 316 318 328 324 248 204 204 201 181 159 90 64 23 23 136 147
Height
1509 1508 1508 1507 1507 1506 1505 1505 1505 1503 1502 1501 1501 1501 1501 1501 1502 1502 1502 1503 1503 1504 1505 1506 1506 1507 1509 1510 1511 1512 1513 1514 1515 1516 1517 1518 1519 1520
1507 1506 1506 1505 1505 1504 1503 1503 1502 1502 1500 1499 1499 1499 1499 1499 1499 1499 1499 1500 1500 1501 1502 1502 1503 1504 1505 1506 1507 1508 1509 1510 1511 1512 1513 1514 1515 1516
1506 1505 1504 1503 1502 1502 1501 1500 1500 1499 1497 1496 1496 1496 1496 1496 1496 1496 1496 1497 1497 1498 1499 1499 1500 1500 1501 1502 1503 1504 1505 1506 1507 1508 1509 1510 1511 1512
1503 1503 1502 1501 1500 1499 1498 1497 1497 1496 1495 1494 1493 1493 1493 1493 1493 1494 1494 1495 1495 1495 1496 1496 1497 1497 1498 1498 1499 1500 1501 1502 1503 1504 1505 1506 1507 1508
1501 1500 1499 1499 1498 1497 1496 1495 1494 1493 1492 1491 1490 1490 1489 1490 1490 1490 1491 1491 1492 1492 1492 1493 1493 1493 1494 1494 1495 1496 1497 1498 1498 1499 1500 1501 1502 1504
1499 1498 1497 1496 1495 1494 1492 1492 1491 1490 1489 1488 1487 1487 1487 1486 1486 1486 1486 1487 1487 1488 1488 1488 1489 1489 1490 1490 1491 1492 1492 1493 1494 1495 1496 1497 1498 1499
1496 1495 1494 1493 1492 1491 1489 1488 1488 1487 1486 1485 1484 1484 1483 1483 1483 1482 1482 1482 1482 1483 1483 1484 1484 1484 1485 1486 1486 1487 1488 1489 1490 1491 1491 1493 1493 1495
1493 1492 1491 1489 1488 1487 1486 1485 1485 1484 1483 1482 1481 1481 1480 1479 1479 1478 1478 1478 1477 1478 1478 1479 1480 1479 1480 1481 1481 1482 1483 1484 1485 1486 1487 1488 1489 1490
1489 1488 1487 1486 1485 1484 1483 1482 1481 1480 1480 1479 1478 1477 1476 1476 1475 1475 1474 1473 1472 1473 1473 1473 1474 1474 1475 1476 1477 1477 1478 1479 1480 1481 1482 1483 1483 1485
1486 1485 1483 1482 1481 1480 1479 1477 1477 1476 1475 1474 1474 1473 1473 1472 1472 1471 1470 1469 1469 1469 1469 1468 1468 1469 1470 1470 1471 1472 1473 1474 1474 1475 1476 1477 1478 1479
1483 1481 1480 1479 1478 1476 1475 1473 1472 1472 1471 1470 1469 1469 1468 1468 1468 1467 1466 1465 1464 1464 1464 1464 1463 1464 1464 1464 1465 1466 1467 1468 1469 1470 1471 1472 1473 1474
1479 1478 1477 1476 1474 1473 1471 1470 1468 1468 1467 1466 1465 1464 1464 1463 1463 1462 1461 1461 1460 1459 1459 1459 1459 1459 1459 1459 1460 1460 1461 1462 1463 1464 1465 1466 1467 1468
1476 1474 1473 1472 1471 1469 1468 1466 1465 1464 1463 1462 1461 1460 1459 1458 1458 1458 1457 1456 1455 1454 1455 1455 1454 1454 1454 1454 1454 1455 1455 1456 1457 1458 1460 1461 1462 1462
1472 1471 1470 1468 1467 1466 1464 1463 1462 1460 1459 1457 1456 1455 1454 1454 1453 1452 1452 1451 1451 1450 1450 1450 1450 1450 1449 1449 1449 1449 1450 1451 1452 1453 1454 1455 1456 1457
1469 1468 1466 1464 1463 1462 1460 1459 1457 1456 1454 1453 1451 1450 1450 1449 1448 1448 1447 1447 1446 1445 1445 1445 1445 1445 1445 1444 1444 1445 1445 1446 1447 1448 1449 1450 1450 1451
1465 1464 1462 1460 1459 1458 1456 1455 1453 1452 1450 1449 1447 1447 1446 1445 1444 1443 1442 1442 1441 1440 1440 1439 1439 1439 1439 1440 1440 1440 1441 1442 1443 1444 1445 1445 1446 1447
1461 1459 1457 1456 1454 1453 1452 1451 1450 1448 1447 1445 1444 1443 1442 1441 1440 1439 1438 1437 1436 1435 1434 1435 1434 1434 1435 1435 1435 1436 1437 1438 1438 1439 1440 1440 1441 1442
1457 1455 1453 1452 1451 1450 1449 1447 1446 1445 1443 1442 1441 1439 1438 1437 1436 1436 1435 1434 1433 1432 1431 1431 1431 1430 1430 1431 1432 1432 1433 1433 1434 1434 1435 1435 1436 1437
1454 1452 1450 1449 1448 1447 1445 1444 1443 1441 1440 1439 1438 1437 1436 1435 1434 1432 1431 1430 1429 1428 1428 1427 1427 1426 1426 1426 1427 1429 1428 1429 1429 1430 1431 1431 1432 1433
1451 1449 1448 1446 1445 1444 1442 1441 1440 1438 1437 1436 1435 1434 1433 1432 1430 1429 1428 1427 1426 1425 1424 1423 1423 1422 1422 1422 1423 1423 1425 1425 1425 1426 1427 1428 1429 1430
1448 1447 1445 1444 1442 1441 1439 1438 1436 1435 1434 1433 1432 1431 1430 1429 1427 1426 1425 1424 1423 1421 1420 1419 1419 1419 1419 1419 1419 1419 1421 1422 1422 1422 1423 1424 1425 1426
1446 1444 1443 1441 1440 1438 1437 1435 1434 1432 1431 1430 1429 1428 1427 1425 1424 1422 1421 1420 1419 1418 1417 1416 1416 1415 1415 1415 1415 1416 1417 1418 1419 1420 1421 1421 1421 1422
1443 1441 1440 1438 1437 1435 1434 1433 1431 1430 1429 1427 1426 1424 1423 1422 1421 1419 1418 1417 1416 1416 1415 1413 1413 1412 1411 1412 1412 1413 1414 1414 1415 1416 1417 1419 1420 1421